Location: Cahas Mountain Overlook
(37.0833°N, 80.1000°W)
Time: 20:02:09
(UTC-05:00)

Vanguard 3 - Pass Details

Date: 07 December 2023
Orbit: 508 x 3239 km, 33.4° (Epoch: 23 February)

Event Time Altitude Azimuth Distance (km) Brightness Sun altitude
Rises 22:00:56 0° 250° (WSW) 6,620 12.2 -58.4°
Reaches altitude 10° 22:05:55 10° 249° (WSW) 5,254 11.5 -59.3°
Enters shadow 22:11:31 25° 244° (WSW) 3,662 10.5 -60.4°
